Regional Weather Roundup
Issued by NWS Northern Indiana

Home | Current Version | Previous Version | Text Only | Print | Product List | Glossary Off
Versions: 1 2 3 4 5 6 7 8 9 10 11 12 13 14 15 16 17 18 19 20 21 22 23 24 25 26 27 28 29 30 31 32 33 34 35 36 37 38 39 40 41 42 43 44 45 46 47 48 49 50

000
ASUS43 KIWX 151510
RWRIWX

KIWX WEATHER ROUNDUP
NATIONAL WEATHER SERVICE NORTHERN INDIANA
1000 AM EST FRI DEC 15 2017

NOTE: "FAIR" INDICATES FEW OR NO CLOUDS BELOW 12,000 FEET WITH NO
SIGNIFICANT WEATHER AND/OR OBSTRUCTIONS TO VISIBILITY.

* THESE STATIONS ARE NOT UNDER NWS QUALITY CONTROL. THEY ALSO MAY NOT
  REPORT WEATHER SUCH AS PRECIPITATION OR FOG.

INZ001>027-151600-
NORTHERN INDIANA

CITY           SKY/WX    TMP DP  RH WIND       PRES   REMARKS
GARY*          CLOUDY    28  19  69 W15G26    29.95R WCI  17
VALPARAISO     LGT SNOW  27  21  78 W12       29.93S WCI  17
MICHIGAN CITY* FLURRIES  28  19  69 W20G25    29.92S WCI  15
LAPORTE*       SNOW      24  21  90 W8        29.92R VSB 1/2 WCI  14
KNOX*          CLOUDY    27  21  80 W14       29.93S WCI  15
SOUTH BEND     LGT SNOW  21  20  96 SW14      29.90S FOG     WCI   8
ELKHART*       LGT SNOW  23  18  80 SW14      29.89F WCI  11
GOSHEN         LGT SNOW  23  16  74 SW14      29.90S WCI  11
MONTICELLO*    CLOUDY    25  19  78 W13       29.97R WCI  14
LOGANSPORT*    FLURRIES  27  21  80 W15G22    29.98R WCI  15
ROCHESTER*     PTSUNNY   28  21  74 SW13      29.94S WCI  18
WARSAW*        CLOUDY    25  18  74 SW13G18   29.91S WCI  13
AUBURN*        CLOUDY    27  18  69 SW10      29.91S WCI  17
FORT WAYNE     CLOUDY    26  18  71 SW16      29.92F WCI  14
HUNTINGTON*    CLOUDY    25  17  72 W12       29.94S WCI  15
PERU/GRISSOM   LGT SNOW  25  19  80 W15       29.95R WCI  12

$$
INZ028>050-151600-
CENTRAL INDIANA

CITY           SKY/WX    TMP DP  RH WIND       PRES   REMARKS
LAFAYETTE      CLOUDY    26  20  77 W10       29.99S WCI  16
KOKOMO*        FLURRIES  26  19  74 SW16      29.97S WCI  14
MUNCIE*        CLOUDY    28  17  63 SW14      29.96F WCI  17
INDIANAPOLIS   CLOUDY    27  17  66 W18       30.02R WCI  14

$$
MIZ043>046-050>051-056>058-064>065-071>073-077>080-151600-
SOUTHWEST LOWER MICHIGAN

CITY           SKY/WX    TMP DP  RH WIND       PRES   REMARKS
BATTLE CREEK   LGT SNOW  21  16  81 SW16      29.82F WCI   7
BENTON HARBOR  LGT SNOW  27  18  69 W20G32    29.88R WCI  13
COLDWATER*     LGT SNOW  22  18  81 SW13G18   29.86S WCI  10
HILLSDALE*     LGT SNOW  23  16  74 SW15      29.84S WCI  10
HOLLAND        SNOW      26  23  88 W12G22    29.82S VSB 1/4 WCI  16
GRAND RAPIDS   LGT SNOW  22  20  92 S10       29.80S VSB 3/4 WCI  11
KALAMAZOO      LGT SNOW  22  17  81 SW12      29.84S WCI  10
STURGIS*       LGT SNOW  23  19  83 SW16      29.86S WCI  10
THREE RIVERS*  LGT SNOW  23  19  83 SW8       29.87S WCI  14

$$
OHZ001>008-015>018-024>025-151600-
NORTHWEST OHIO

CITY           SKY/WX    TMP DP  RH WIND       PRES   REMARKS
WAUSEON*       CLOUDY    25  19  80 SW14      29.89F WCI  13
DEFIANCE       CLOUDY    24  16  71 SW13      29.91F WCI  12
FINDLAY        CLOUDY    24  14  65 S15       29.92F WCI  11
TOLEDO EXPRESS CLOUDY    24  16  71 SW12      29.90F WCI  13
TOLEDO METCALF CLOUDY    24  14  65 SW13      29.92F WCI  12
LIMA           CLOUDY    24  16  71 SW14      29.93F WCI  12

$$
AND FOR LAKE MICHIGAN COASTAL AND OPEN LAKE BUOY OBSERVATIONS

STATION/POSITION TEMP    WIND        PRES    VSBY  WAVE
                 AIR SEA DIR/SP/G                  HT/PER
                 (F)     (DEG/KT/KT) (MB)    (MI)  (FT/S)
CALUMET HARBOR    27     260/  9/ 17 1013.0R
MICHIGAN CITY     27     260/ 31/ 34   N/A
BURNS HARBOR      28     270/ 16/ 26 1013.9S
SAINT JOSEPH      28     290/ 19/ 28 1012.9

$$
&&



USA.gov is the U.S. government's official web portal to all federal, state and local government web resources and services.